Flag for Netherlands Weather past 2 weeks in Rotterdam, Netherlands

Now
54 °F

Overcast.


Feels Like: 47 °F
Forecast: 49 / 53 °F
Wind: 31 mph from Southwest

Location: Rotterdam Zestienhoven Airport

Current Time: Dec 22, 2014 at 12:29:55 PM

Latest Report: Dec 22, 2014 at 11:55 AM


Visibility: N/A

Pressure: 30.01 "Hg

Humidity: 88%

Dew point: 50 °F

Location of RotterdamLocation

Historic Weather in Rotterdam — Graph

°F

Rotterdam temperature yesterday

Maximum temperature yesterday: 52 °F (at 11:25 PM)
Minimum temperature yesterday: 41 °F (at 2:55 AM)
Average temperature yesterday: 46 °F

Past Weeks' High & Low Weather Summary

 TemperatureHumidityPressure
High54 °F (Dec 18, 10:25 AM)100% (Dec 8, 5:55 PM)30.36 "Hg (Dec 8, 5:55 PM)
Low32 °F (Dec 9, 5:55 AM)62% (Dec 10, 12:25 PM)29.30 "Hg (Dec 12, 8:25 AM)
Average45 °F85%29.90 "Hg
* Reported Dec 7 11:25 AM — Dec 22 11:25 AM, Rotterdam, Weather by CustomWeather, © 2014

Note: Actual official high and low records may vary slightly from our data, if they occured in-between our weather recording intervals... More about our weather records

Advertising

Rotterdam weather history for previous 24 hours

 ConditionsComfort  
Time TempWeatherWind HumidityBarometerVisibility
11:25 AM
Dec 22
54 °FMore clouds than sun.29 mph88%30.01 "HgN/A
10:55 AM54 °FMostly cloudy.26 mph88%30.01 "HgN/A
10:25 AM54 °FCloudy.26 mph88%30.01 "HgN/A
9:55 AM54 °FCloudy.26 mph88%30.01 "HgN/A
9:25 AM52 °FLow clouds.30 mph94%30.01 "HgN/A
8:55 AM52 °FLow clouds.29 mph94%30.01 "HgN/A
8:25 AM52 °FLow clouds.28 mph94%30.01 "HgN/A
7:55 AM52 °FLow clouds.26 mph94%30.01 "HgN/A
7:25 AM52 °FLow clouds.26 mph94%30.01 "HgN/A
6:55 AM52 °FLow clouds.29 mph94%30.01 "HgN/A
6:25 AM52 °FMostly cloudy.30 mph94%30.01 "HgN/A
5:55 AM52 °FLow clouds.28 mph94%30.01 "HgN/A
5:25 AM52 °FLow clouds.26 mph94%30.01 "HgN/A
4:55 AM52 °FMostly cloudy.29 mph94%30.04 "HgN/A
4:25 AM52 °FLow clouds.26 mph94%30.04 "HgN/A
3:55 AM52 °FOvercast.28 mph88%30.07 "HgN/A
3:25 AM52 °FOvercast.30 mph88%30.07 "HgN/A
2:55 AM52 °FOvercast.29 mph88%30.07 "HgN/A
2:25 AM52 °FOvercast.25 mph88%30.07 "HgN/A
1:55 AM52 °FOvercast.26 mph88%30.07 "HgN/A
1:25 AM52 °FMostly cloudy.25 mph88%30.09 "HgN/A
12:55 AM52 °FMostly cloudy.28 mph88%30.09 "HgN/A
12:25 AM52 °FLow clouds.28 mph88%30.09 "HgN/A
11:25 PM
Dec 21
52 °FOvercast.26 mph82%30.12 "HgN/A
10:55 PM50 °FOvercast.25 mph88%30.12 "HgN/A
10:25 PM50 °FMostly cloudy.24 mph88%30.12 "HgN/A
9:55 PM50 °FMostly cloudy.26 mph82%30.12 "HgN/A
9:25 PM50 °FMostly cloudy.25 mph82%30.15 "HgN/A
8:55 PM50 °FOvercast.24 mph82%30.15 "HgN/A
8:25 PM50 °FMostly cloudy.20 mph82%30.15 "HgN/A
7:25 PM48 °FMostly cloudy.20 mph82%30.18 "HgN/A
6:55 PM50 °FOvercast.23 mph71%30.18 "HgN/A
6:25 PM48 °FOvercast.23 mph76%30.18 "HgN/A
5:55 PM48 °FOvercast.26 mph76%30.18 "HgN/A
5:25 PM48 °FOvercast.25 mph76%30.18 "HgN/A
4:55 PM48 °FOvercast.23 mph76%30.18 "HgN/A
4:25 PM48 °FOvercast.22 mph76%30.21 "HgN/A
3:55 PM48 °FOvercast.20 mph76%30.21 "HgN/A
3:25 PM48 °FOvercast.21 mph76%30.21 "HgN/A
2:55 PM48 °FMore clouds than sun.18 mph82%30.21 "HgN/A
2:25 PM48 °FMostly cloudy.17 mph82%30.24 "HgN/A
1:55 PM48 °FMostly cloudy.20 mph82%30.24 "HgN/A
1:25 PM48 °FBroken clouds.17 mph82%30.27 "HgN/A
12:55 PM48 °FBroken clouds.17 mph82%30.27 "HgN/A
12:25 PM48 °FMostly cloudy.18 mph82%30.30 "HgN/A
Weather by CustomWeather, © 2014

See weather overviewHow to use our weather pages